DateTimeUTC,F1_A11,F1_S11,BsB_S11,BsG_S11,BsR_S11,BbsB_S11,BbsG_S11,BbsR_S11,BaB_A11,BaG_A11,BaR_A11,Tu_S11,T_S11,Uu_S11,U_S11,P_S11,T1_A11
2021-08-26T04:00:00Z,00000200,20000000,,,,,,,-000.24,0000.33,0000.15,18.6,25.6,06.0,03.9,0671.4,31.0
2021-08-26T04:01:00Z,00000200,20000000,,,,,,,0000.02,-000.18,-000.48,18.6,25.6,06.0,03.9,0671.4,31.0
2021-08-26T04:02:00Z,00000200,20000000,,,,,,,-000.22,-000.01,0000.15,18.6,25.6,06.0,03.9,0671.4,31.0
2021-08-26T04:03:00Z,00000200,60000000,,,,,,,0000.91,0000.25,0000.42,18.6,25.6,06.0,03.9,0671.4,31.0
2021-08-26T04:04:00Z,00000200,40000000,0005.51,0005.19,0003.47,0001.03,0000.66,0000.25,0000.71,0001.07,0000.82,18.7,25.4,05.8,03.9,0672.2,31.0
2021-08-26T04:05:00Z,00000200,00000000,0005.25,0004.93,0003.35,0000.07,0001.12,0000.36,0001.66,0001.25,0001.03,18.8,25.3,05.9,03.9,0672.3,31.0
2021-08-26T04:06:00Z,00000200,00000000,0005.47,0005.02,0003.75,0000.77,0000.42,0000.51,0000.95,0000.81,0000.83,18.8,25.3,06.0,04.0,0672.3,31.0
2021-08-26T04:07:00Z,00000200,00000000,0005.47,0004.99,0003.29,0000.76,0000.70,0000.30,0001.16,0001.35,0001.05,18.8,25.3,06.1,04.1,0672.3,31.0
2021-08-26T04:08:00Z,00000200,00000000,0004.93,0005.06,0003.06,0000.39,0000.70,0000.33,0001.58,0001.07,0000.78,18.7,25.3,06.1,04.1,0672.3,31.0
2021-08-26T04:09:00Z,00000200,00000000,0005.76,0005.07,0003.27,0001.20,0000.84,0000.14,0000.78,0001.00,0000.89,18.7,25.3,06.0,04.1,0672.3,31.0
2021-08-26T04:10:00Z,00000200,00000000,0005.81,0004.98,0003.42,0000.73,0000.68,0000.15,0001.29,0001.12,0001.30,18.7,25.2,06.1,04.1,0672.3,31.0
2021-08-26T04:11:00Z,00000200,00000000,0006.26,0004.79,0003.33,0000.49,0000.74,0000.85,0001.17,0001.08,0000.27,18.7,25.2,06.2,04.2,0672.3,31.0
2021-08-26T04:12:00Z,00000200,00000000,0006.11,0004.77,0003.43,0000.59,0000.66,0000.46,0001.01,0001.18,0001.02,18.7,25.2,06.2,04.2,0672.3,31.0
2021-08-26T04:13:00Z,00000200,00000000,0005.72,0005.23,0003.31,0001.39,0000.69,0000.39,0001.12,0000.91,0000.80,18.7,25.2,06.2,04.2,0672.3,31.0
2021-08-26T04:14:00Z,00000200,00000000,0005.90,0004.73,0003.23,0000.59,0000.67,0000.41,0001.10,0000.97,0001.03,18.7,25.2,06.2,04.2,0672.3,31.0
2021-08-26T04:15:00Z,00000200,00000000,0005.55,0005.18,0003.47,0000.65,0000.57,0000.66,0000.93,0000.91,0000.52,18.7,25.2,06.1,04.1,0672.3,31.0
2021-08-26T04:16:00Z,00000200,00000000,0006.06,0004.70,0003.10,0000.68,0000.60,0000.28,0001.69,0001.47,0001.49,18.7,25.2,06.1,04.1,0672.3,31.0
2021-08-26T04:17:00Z,00000200,00000000,0005.22,0004.77,0003.27,0000.54,0000.51,0000.38,0001.13,0001.25,0000.84,18.8,25.2,06.2,04.2,0672.3,31.0
2021-08-26T04:18:00Z,00000200,00000000,0005.96,0005.15,0003.41,0000.74,0000.81,0000.46,0001.36,0001.36,0000.71,18.9,25.2,06.1,04.2,0672.3,31.0
2021-08-26T04:19:00Z,00000200,00000000,0005.93,0005.14,0003.16,0000.54,0000.62,0000.23,0000.69,0000.89,0001.14,19.0,25.3,06.1,04.1,0672.3,31.0
2021-08-26T04:20:00Z,00000200,00000000,0005.63,0005.14,0003.55,0000.76,0000.96,0000.61,0001.19,0001.16,0000.64,19.1,25.3,06.0,04.1,0672.3,31.0
2021-08-26T04:21:00Z,00000200,00000000,0004.76,0004.97,0003.12,0000.67,0000.63,0000.12,0001.01,0000.93,0000.70,19.1,25.4,06.0,04.1,0672.3,31.1
2021-08-26T04:22:00Z,00000200,00000000,0005.02,0005.28,0003.56,0000.92,0000.80,0000.36,0000.86,0000.55,0000.49,19.1,25.4,06.0,04.1,0672.3,31.0
2021-08-26T04:23:00Z,00000200,00000000,0005.96,0004.54,0003.04,0000.49,0000.70,0000.40,0000.96,0000.79,0001.15,19.1,25.3,06.0,04.1,0672.3,31.0
2021-08-26T04:24:00Z,00000200,00000000,0005.60,0005.11,0003.47,0001.15,0000.65,0000.40,0001.13,0001.14,0000.59,19.0,25.3,06.0,04.1,0672.3,31.0
2021-08-26T04:25:00Z,00000200,00000000,0005.71,0004.83,0002.99,0000.53,0000.44,0000.07,0000.88,0000.96,0000.98,19.0,25.3,06.0,04.1,0672.3,31.0
2021-08-26T04:26:00Z,00000200,00000000,0004.70,0005.03,0003.30,0000.35,0000.69,0000.39,0001.08,0000.53,0000.62,19.0,25.3,06.0,04.0,0672.3,31.0
2021-08-26T04:27:00Z,00000200,00000000,0005.68,0004.18,0002.81,0001.15,0000.77,0000.26,0000.63,0000.82,0000.52,18.9,25.3,05.9,04.0,0672.3,31.0
2021-08-26T04:28:00Z,00000200,00000000,0004.57,0004.38,0002.69,0000.69,0000.71,0000.33,0001.19,0001.25,0001.07,18.9,25.3,05.7,03.9,0672.3,31.0
2021-08-26T04:29:00Z,00000200,00000000,0004.61,0004.36,0002.75,0001.31,0000.85,0000.37,0000.98,0000.75,0000.50,18.9,25.3,05.9,04.0,0672.3,31.0
2021-08-26T04:30:00Z,00000200,00000000,0004.94,0004.14,0002.48,0000.26,0000.77,-000.02,0001.18,0000.80,0001.01,18.9,25.3,05.8,04.0,0672.3,31.0
2021-08-26T04:31:00Z,00000200,00000000,0004.07,0003.87,0002.61,0000.64,0000.58,0000.34,0000.77,0001.30,0000.76,18.9,25.3,05.8,03.9,0672.3,31.0
2021-08-26T04:32:00Z,00000200,00000000,0004.98,0003.62,0002.88,0000.44,0000.25,0000.18,0000.87,0000.38,0000.59,19.0,25.3,05.8,03.9,0672.3,31.0
2021-08-26T04:33:00Z,00000200,00000000,0004.25,0003.93,0002.86,0000.10,0000.83,0000.39,0000.68,0001.00,0000.57,19.1,25.4,05.7,03.9,0672.3,31.0
2021-08-26T04:34:00Z,00000200,00000000,0004.65,0003.59,0002.30,0000.68,0000.57,0000.36,0000.98,0000.68,0000.56,19.1,25.4,05.7,03.9,0672.3,31.0
2021-08-26T04:35:00Z,00000200,00000000,0004.40,0004.30,0002.71,0000.84,0000.95,0000.35,0000.75,0001.03,0000.65,19.1,25.4,05.7,03.9,0672.3,31.0
2021-08-26T04:36:00Z,00000200,00000000,0004.26,0004.27,0002.94,0000.54,0000.44,0000.45,0000.94,0000.76,0000.70,19.1,25.4,05.7,03.9,0672.3,31.0
2021-08-26T04:37:00Z,00000200,00000000,0004.69,0003.84,0002.72,0000.86,0000.30,0000.26,0000.69,0000.37,0000.41,19.1,25.4,05.7,03.9,0672.3,31.0
2021-08-26T04:38:00Z,00000200,00000000,0005.15,0004.02,0002.20,0000.29,0000.73,0000.27,0000.63,0000.73,0000.43,19.1,25.4,05.6,03.8,0672.3,31.0
2021-08-26T04:39:00Z,00000200,00000000,0004.85,0004.23,0002.55,0000.87,0000.41,0000.31,0000.97,0000.63,0000.84,19.0,25.4,05.6,03.8,0672.3,31.0
2021-08-26T04:40:00Z,00000200,00000000,0004.96,0004.27,0002.73,0000.49,0000.35,0000.57,0001.03,0001.05,0000.61,19.0,25.4,05.7,03.8,0672.3,31.0
2021-08-26T04:41:00Z,00000200,00000000,0004.78,0004.14,0003.10,0000.65,0000.35,0000.25,0000.83,0000.83,0000.54,19.0,25.4,05.7,03.8,0672.3,31.0
2021-08-26T04:42:00Z,00000200,00000000,0005.33,0004.17,0002.49,0000.23,0000.74,0000.28,0000.71,0000.63,0000.93,19.0,25.4,05.7,03.8,0672.3,31.0
2021-08-26T04:43:00Z,00000200,00000000,0004.52,0004.51,0002.68,0000.01,0000.73,0000.40,0001.17,0000.92,0000.55,18.9,25.3,05.7,03.9,0672.3,31.0
2021-08-26T04:44:00Z,00000200,00000000,0004.68,0004.22,0002.68,0000.73,0000.82,0000.34,0000.70,0000.85,0000.63,18.9,25.3,05.6,03.8,0672.3,31.0
2021-08-26T04:45:00Z,00000200,00000000,0004.25,0004.06,0002.60,0000.06,0000.72,0000.20,0000.79,0000.97,0000.72,18.9,25.3,05.7,03.9,0672.2,31.0
2021-08-26T04:46:00Z,00000200,00000000,0004.71,0004.24,0002.71,0000.62,0000.55,0000.67,0001.19,0000.94,0000.98,18.9,25.3,05.7,03.9,0672.2,31.0
2021-08-26T04:47:00Z,00000200,00000000,0005.24,0004.28,0002.90,0000.18,0000.87,0000.16,0000.83,0000.63,0000.52,18.9,25.3,05.7,03.8,0672.2,31.0
2021-08-26T04:48:00Z,00000200,00000000,0004.82,0004.28,0002.63,0000.81,0000.53,0000.30,0000.74,0000.97,0000.49,18.9,25.3,05.7,03.9,0672.2,31.0
2021-08-26T04:49:00Z,00000200,00000000,0004.84,0004.11,0002.73,0001.06,0000.53,0000.40,0001.24,0001.12,0000.95,18.9,25.3,05.7,03.9,0672.3,31.0
2021-08-26T04:50:00Z,00000200,00000000,0004.25,0004.57,0002.90,0000.77,0000.89,0000.19,0000.77,0000.66,0000.51,18.8,25.3,05.7,03.9,0672.3,31.0
2021-08-26T04:51:00Z,00000200,00000000,0004.40,0004.10,0002.92,0000.17,0000.62,0000.55,0001.23,0000.90,0000.93,18.8,25.2,05.7,03.9,0672.2,31.0
2021-08-26T04:52:00Z,00000200,00000000,0004.61,0004.64,0003.20,0000.68,0000.81,0000.35,0000.71,0000.94,0000.74,18.8,25.2,05.7,03.9,0672.3,31.0
2021-08-26T04:53:00Z,00000200,00000000,0004.74,0004.32,0002.91,0000.38,0000.56,0000.28,0001.09,0001.00,0000.70,18.8,25.2,05.7,03.9,0672.3,31.0
2021-08-26T04:54:00Z,00000200,00000000,0005.41,0004.60,0003.43,0000.37,0000.81,0000.32,0000.61,0000.71,0000.80,18.8,25.2,05.8,03.9,0672.3,31.0
2021-08-26T04:55:00Z,00000200,00000000,0005.42,0004.95,0003.50,0000.46,0000.68,0000.64,0001.49,0001.04,0000.81,18.8,25.2,05.8,03.9,0672.3,31.0
2021-08-26T04:56:00Z,00000200,00000000,0004.68,0004.71,0003.27,0000.46,0000.72,0000.35,0001.29,0001.35,0001.01,18.8,25.2,05.9,04.0,0672.3,31.0
2021-08-26T04:57:00Z,00000200,40000000,,,,,,,0000.28,0000.13,0000.23,18.8,25.2,05.5,03.7,0672.2,31.0
2021-08-26T04:58:00Z,00000200,60000000,,,,,,,-000.29,-000.26,-000.09,18.5,25.3,05.9,03.9,0671.3,31.0
2021-08-26T04:59:00Z,00000200,20000000,,,,,,,-000.44,-000.05,-000.35,18.4,25.4,05.9,03.9,0671.3,31.0
